Regional Weather Roundup
Issued by NWS Portland, ME

Home | Current Version | Previous Version | Text Only | Print | Product List | Glossary On
Versions: 1 2 3 4 5 6 7 8 9 10 11 12 13 14 15 16 17 18 19 20 21 22 23 24 25 26 27 28 29 30 31 32 33 34 35 36 37 38 39 40 41 42 43 44 45 46 47 48 49 50
000
ASUS41 KGYX 240010
RWRGYX
WEATHER ROUNDUP FOR MAINE AND NEW HAMPSHIRE
NATIONAL WEATHER SERVICE GRAY ME
700 PM EST THU FEB 23 2017

MEZ002-005-006-010-012-015-018-020-021-024-026-027-029-240100-
MAINE

CITY           SKY/WX    TMP DP  RH WIND       PRES   REMARKS
PORTLAND       CLEAR     47  41  80 S9        29.73R
6HR MIN TEMP:  45; 6HR MAX TEMP:  50;

SANFORD        CLEAR     42  37  82 CALM      29.73R
BAR HARBOR     CLEAR     40  39  97 SW3       29.75R
WISCASSET      CLEAR     38  35  89 CALM      29.74R
6HR MIN TEMP:  38; 6HR MAX TEMP:  49;

ROCKLAND       CLEAR     45  43  93 S7        29.73S
FRYEBURG       CLEAR     58  38  47 SW6       29.70R
6HR MIN TEMP:  51; 6HR MAX TEMP:  65;

LEWISTONAUBURN CLEAR     43  39  86 S8        29.70R
AUGUSTA        CLEAR     45  38  76 S8        29.70R
6HR MIN TEMP:  45; 6HR MAX TEMP:  52;

WATERVILLE     CLEAR     45  40  82 S6        29.68R
BANGOR         FOG       39  39 100 S6        29.71R VSB 1
6HR MIN TEMP:  39; 6HR MAX TEMP:  46;

GREENVILLE       N/A     43  38  82 CALM      29.63R
6HR MIN TEMP:  39; 6HR MAX TEMP:  47;

MILLINOCKET    MOCLDY    44  37  76 VRB3      29.64S
6HR MIN TEMP:  44; 6HR MAX TEMP:  51;

HOULTON        CLEAR     43  37  79 S9        29.60S
6HR MIN TEMP:  43; 6HR MAX TEMP:  53;

PRESQUE ISLE   LGT RAIN  47  39  74 S9        29.55S
6HR MIN TEMP:  47; 6HR MAX TEMP:  52; 6HR PCP: TRACE;

FRENCHVILLE    LGT RAIN  43  39  86 SW5       29.50S
6HR MIN TEMP:  39; 6HR MAX TEMP:  48; 6HR PCP:  0.16;

CARIBOU        LGT RAIN  47  38  71 S8        29.53S
6HR MIN TEMP:  45; 6HR MAX TEMP:  50; 6HR PCP: TRACE;

$$

NHZ002-005-008-009-011-012-014-240100-
NEW HAMPSHIRE

CITY           SKY/WX    TMP DP  RH WIND       PRES   REMARKS
PORTSMOUTH     CLEAR     54  43  66 S9        29.73R
ROCHESTER      CLEAR     56  40  55 CALM      29.73R
6HR MIN TEMP:  55; 6HR MAX TEMP:  66;

NASHUA         CLEAR     58  47  66 CALM      29.77R
MANCHESTER     CLEAR     60  43  53 S8        29.74R
6HR MIN TEMP:  60; 6HR MAX TEMP:  68;

CONCORD        CLEAR     58  43  57 SW5       29.75R
6HR MIN TEMP:  56; 6HR MAX TEMP:  65;

PLYMOUTH       FAIR      41  35  78 CALM      29.72R
BERLIN         CLEAR     56  40  55 VRB6      29.67R
6HR MIN TEMP:  48; 6HR MAX TEMP:  65;

WHITEFIELD     PTCLDY    55  41  59 SW5       29.70R
6HR MIN TEMP:  52; 6HR MAX TEMP:  65;

JAFFREY        CLEAR     53  46  77 S7        29.78R
6HR MIN TEMP:  48; 6HR MAX TEMP:  63;

KEENE          CLEAR     45  41  86 CALM      29.78R
LEBANON        CLEAR     45  38  76 NE5       29.73R
6HR MIN TEMP:  45; 6HR MAX TEMP:  65;

MT WASHINGTON  FOG       36  36 100 W67G79      N/A  VSB 0
6HR MIN TEMP:  36; 6HR MAX TEMP:  38;

$$

VTZ005-007-008-240100-
VERMONT

CITY           SKY/WX    TMP DP  RH WIND       PRES   REMARKS
ST JOHNSBURY     N/A     42  37  82 MISG      29.68R
MONTPELIER     PTCLDY    60  45  57 SW17G28   29.75R
BURLINGTON     PTCLDY    58  44  60 W5        29.73R
$$

MAZ007-012-024-CTZ003-RIZ002-NYZ038-NYZ072-240100-
SOUTHERN NEW ENGLAND AND NY

CITY           SKY/WX    TMP DP  RH WIND       PRES   REMARKS
BOSTON         CLEAR     57  50  77 SW20      29.80R
WORCESTER      CLEAR     52  46  80 SW13      29.82R
NANTUCKET      CLEAR     46  43  89 SW14      29.90R
PROVIDENCE     PTCLDY    52  48  86 SW12      29.87R
HARTFORD       CLEAR     54  48  80 S10       29.84R
ALBANY         PTCLDY    62  47  57 S5        29.78R
NEW YORK CITY  PTCLDY    59  49  69 VRB5      29.86R
$$

ANZ081-ANZ082-ANZ150-NHZ014-MEZ023>029-240100-
COASTAL MARINE OBSERVATIONS

STATION/POSITION TIME  TEMP    WIND        PRES    WAVE
                       AIR SEA DIR/SP/G            HT/PER
                 (UTC) (F)     (DEG/KT/KT) (MB)    (FT/S)
MOUNT DESERT ROC 0000   43                 1007.6R
MATINICUS ROCK   0000   45     200/ 26/ 29 1006.5F
ISLE OF SHOALS   0000   54     200/ 23/ 23 1007.2R
JEFFREYS LEDGE   2306      43                N/A     5/10
CASHES LEDGE BUO 2350   44 43              1008.0R   5/11
GEORGES BANK BUO 2350   48 44              1014.5R   5/10
$$

.............KEY..............
   WCI - WIND CHILL
   TC  - TEMPERATURE IN CELSIUS
   VSB - VISIBILITY IN MILES
   HX  - HEAT INDEX
   FAIR- INDICATES FEW OR NO CLOUDS BELOW 12,000 FT, WITH NO
         SIGNIFICANT WEATHER AND/OR OBSTRUCTIONS TO VISIBILITY.






USA.gov is the U.S. government's official web portal to all federal, state and local government web resources and services.